• En Estados Unidos
  • Lista de países
  • Para 7 días
  • Temperatura del agua
  • Mapa Satelital
  • El tiempo en el mapa
  • Informadores
  • user-avatar
    Iniciar sesión

    Tiempo cada hora Korçe

    Hoy, 25 Septiembre, Martes

    Tiempo Temperatura Precipitaciones Viento Presión Humedad
    00:00 +14°C° 0 mm 2 mps 669 mmHg 83%
    01:00 +13°C° 0 mm 2 mps 669 mmHg 81%
    02:00 +12°C° 0 mm 2 mps 669 mmHg 78%
    03:00 +11°C° 0 mm 3 mps 669 mmHg 75%
    04:00 +10°C° 0 mm 3 mps 669 mmHg 72%
    05:00 +10°C° 0 mm 3 mps 670 mmHg 67%
    06:00 +10°C° 0 mm 3 mps 670 mmHg 63%
    07:00 +10°C° 0 mm 3 mps 670 mmHg 58%
    08:00 +12°C° 0 mm 3 mps 671 mmHg 52%
    09:00 +14°C° 0 mm 3 mps 671 mmHg 46%
    10:00 +16°C° 0 mm 3 mps 672 mmHg 40%
    11:00 +17°C° 0 mm 3 mps 672 mmHg 37%
    12:00 +18°C° 0 mm 3 mps 672 mmHg 34%
    13:00 +19°C° 0 mm 3 mps 672 mmHg 32%
    14:00 +19°C° 0 mm 3 mps 672 mmHg 31%
    15:00 +18°C° 0 mm 4 mps 672 mmHg 31%
    16:00 +18°C° 0 mm 4 mps 672 mmHg 31%
    17:00 +14°C° 0 mm 3 mps 672 mmHg 33%
    18:00 +12°C° 0 mm 3 mps 672 mmHg 35%
    19:00 +10°C° 0 mm 3 mps 671 mmHg 37%
    20:00 +9°C° 0 mm 3 mps 672 mmHg 38%
    21:00 +8°C° 0 mm 3 mps 672 mmHg 39%
    22:00 +7°C° 0 mm 3 mps 672 mmHg 40%
    23:00 +7°C° 0 mm 3 mps 672 mmHg 42%

    Mañana, 26 Septiembre, Miércoles

    Tiempo Temperatura Precipitaciones Viento Presión Humedad
    00:00 +5°C° 0 mm 3 mps 672 mmHg 45%
    01:00 +4°C° 0 mm 3 mps 672 mmHg 47%
    02:00 +4°C° 0 mm 3 mps 672 mmHg 50%
    03:00 +3°C° 0 mm 3 mps 672 mmHg 52%
    04:00 +3°C° 0 mm 3 mps 672 mmHg 55%
    05:00 +3°C° 0 mm 3 mps 672 mmHg 53%
    06:00 +4°C° 0 mm 3 mps 673 mmHg 52%
    07:00 +5°C° 0 mm 4 mps 673 mmHg 50%
    08:00 +6°C° 0 mm 4 mps 674 mmHg 45%
    09:00 +8°C° 0 mm 4 mps 674 mmHg 40%
    10:00 +10°C° 0 mm 5 mps 675 mmHg 35%
    11:00 +12°C° 0 mm 5 mps 675 mmHg 33%
    12:00 +12°C° 0 mm 5 mps 675 mmHg 31%
    13:00 +13°C° 0 mm 5 mps 675 mmHg 29%
    14:00 +13°C° 0 mm 5 mps 674 mmHg 28%
    15:00 +12°C° 0 mm 5 mps 674 mmHg 28%
    16:00 +12°C° 0 mm 5 mps 674 mmHg 28%
    17:00 +10°C° 0 mm 4 mps 674 mmHg 31%
    18:00 +7°C° 0 mm 4 mps 674 mmHg 34%
    19:00 +7°C° 0 mm 3 mps 674 mmHg 37%
    20:00 +5°C° 0 mm 3 mps 674 mmHg 39%
    21:00 +4°C° 0 mm 3 mps 674 mmHg 41%
    22:00 +4°C° 0 mm 3 mps 674 mmHg 44%
    23:00 +3°C° 0 mm 3 mps 674 mmHg 46%

    Pasado mañana, 27 Septiembre, Jueves

    Tiempo Temperatura Precipitaciones Viento Presión Humedad
    00:00 +3°C° 0 mm 3 mps 674 mmHg 48%
    01:00 +3°C° 0 mm 2 mps 674 mmHg 50%
    02:00 +3°C° 0 mm 2 mps 673 mmHg 51%
    03:00 +2°C° 0 mm 2 mps 673 mmHg 53%
    04:00 +2°C° 0 mm 2 mps 673 mmHg 54%
    05:00 +3°C° 0 mm 2 mps 673 mmHg 52%
    06:00 +3°C° 0 mm 3 mps 673 mmHg 49%
    07:00 +4°C° 0 mm 3 mps 673 mmHg 47%
    08:00 +7°C° 0 mm 3 mps 673 mmHg 40%
    09:00 +9°C° 0 mm 3 mps 674 mmHg 33%
    10:00 +11°C° 0 mm 4 mps 674 mmHg 26%
    11:00 +12°C° 0 mm 4 mps 673 mmHg 24%
    12:00 +13°C° 0 mm 4 mps 673 mmHg 21%
    13:00 +14°C° 0 mm 5 mps 673 mmHg 19%
    14:00 +14°C° 0 mm 5 mps 672 mmHg 20%
    15:00 +14°C° 0 mm 5 mps 672 mmHg 20%
    16:00 +14°C° 0 mm 4 mps 671 mmHg 21%
    17:00 +12°C° 0 mm 4 mps 671 mmHg 25%
    18:00 +10°C° 0 mm 3 mps 670 mmHg 28%
    19:00 +8°C° 0 mm 3 mps 670 mmHg 32%
    20:00 +7°C° 0 mm 3 mps 670 mmHg 34%
    21:00 +7°C° 0 mm 3 mps 669 mmHg 36%
    22:00 +6°C° 0 mm 2 mps 669 mmHg 38%
    23:00 +6°C° 0 mm 2 mps 669 mmHg 39%

    28 Septiembre, Viernes

    Tiempo Temperatura Precipitaciones Viento Presión Humedad
    00:00 +6°C° 0 mm 2 mps 669 mmHg 41%
    01:00 +6°C° 0 mm 2 mps 668 mmHg 42%
    02:00 +6°C° 0 mm 2 mps 668 mmHg 44%
    03:00 +6°C° 0 mm 2 mps 668 mmHg 45%
    04:00 +6°C° 0 mm 2 mps 667 mmHg 46%
    05:00 +6°C° 0 mm 2 mps 667 mmHg 45%
    06:00 +7°C° 0 mm 3 mps 667 mmHg 44%
    07:00 +8°C° 0 mm 3 mps 668 mmHg 43%
    08:00 +9°C° 0 mm 3 mps 668 mmHg 42%
    09:00 +11°C° 0 mm 3 mps 668 mmHg 41%
    10:00 +13°C° 0 mm 3 mps 668 mmHg 40%
    11:00 +14°C° 0 mm 3 mps 668 mmHg 41%
    12:00 +14°C° 0 mm 3 mps 668 mmHg 42%
    13:00 +16°C° 0 mm 3 mps 668 mmHg 43%
    14:00 +14°C° 0.3 mm 3 mps 668 mmHg 48%
    15:00 +13°C° 0.3 mm 3 mps 667 mmHg 53%
    16:00 +12°C° 0.3 mm 3 mps 667 mmHg 58%
    17:00 +12°C° 0.2 mm 2 mps 667 mmHg 63%
    18:00 +10°C° 0.2 mm 2 mps 667 mmHg 68%
    19:00 +9°C° 0.2 mm 2 mps 667 mmHg 74%
    20:00 +9°C° 0 mm 2 mps 667 mmHg 76%
    21:00 +8°C° 0 mm 2 mps 667 mmHg 77%
    22:00 +8°C° 0 mm 2 mps 666 mmHg 79%
    23:00 +8°C° 0 mm 2 mps 666 mmHg 79%

    29 Septiembre, Sábado

    Tiempo Temperatura Precipitaciones Viento Presión Humedad
    00:00 +7°C° 0 mm 2 mps 666 mmHg 80%
    01:00 +7°C° 0 mm 2 mps 666 mmHg 81%
    02:00 +7°C° 0 mm 2 mps 666 mmHg 81%
    03:00 +8°C° 0 mm 1 mps 666 mmHg 81%
    04:00 +8°C° 0 mm 1 mps 665 mmHg 82%
    05:00 +8°C° 0 mm 1 mps 666 mmHg 79%
    06:00 +9°C° 0 mm 1 mps 666 mmHg 76%
    07:00 +10°C° 0 mm 1 mps 666 mmHg 73%
    08:00 +12°C° 0 mm 1 mps 667 mmHg 64%
    09:00 +15°C° 0 mm 1 mps 668 mmHg 56%
    10:00 +18°C° 0 mm 1 mps 668 mmHg 47%
    11:00 +18°C° 0 mm 1 mps 668 mmHg 45%
    12:00 +18°C° 0 mm 2 mps 668 mmHg 42%
    13:00 +19°C° 0 mm 2 mps 668 mmHg 39%
    14:00 +18°C° 0 mm 2 mps 668 mmHg 41%
    15:00 +18°C° 0 mm 2 mps 668 mmHg 43%
    16:00 +17°C° 0 mm 2 mps 668 mmHg 45%
    17:00 +15°C° 0 mm 2 mps 668 mmHg 49%
    18:00 +14°C° 0 mm 2 mps 668 mmHg 52%
    19:00 +12°C° 0 mm 1 mps 668 mmHg 56%
    20:00 +12°C° 0 mm 1 mps 668 mmHg 57%
    21:00 +11°C° 0 mm 1 mps 668 mmHg 58%
    22:00 +11°C° 0 mm 1 mps 668 mmHg 58%
    23:00 +10°C° 0 mm 1 mps 668 mmHg 58%

    30 Septiembre, Domingo

    Tiempo Temperatura Precipitaciones Viento Presión Humedad
    00:00 +10°C° 0 mm 1 mps 668 mmHg 58%
    01:00 +10°C° 0 mm 1 mps 668 mmHg 58%
    02:00 +10°C° 0 mm 1 mps 668 mmHg 57%
    03:00 +8°C° 0 mm 2 mps 668 mmHg 57%
    04:00 +8°C° 0 mm 2 mps 668 mmHg 57%
    05:00 +9°C° 0 mm 2 mps 668 mmHg 56%
    06:00 +10°C° 0 mm 2 mps 669 mmHg 54%
    07:00 +12°C° 0 mm 2 mps 669 mmHg 53%
    08:00 +14°C° 0 mm 2 mps 670 mmHg 48%
    09:00 +16°C° 0 mm 2 mps 670 mmHg 43%
    10:00 +18°C° 0 mm 2 mps 671 mmHg 38%
    11:00 +18°C° 0 mm 2 mps 671 mmHg 37%
    12:00 +20°C° 0 mm 1 mps 671 mmHg 36%
    13:00 +20°C° 0 mm 1 mps 671 mmHg 36%
    14:00 +20°C° 0 mm 1 mps 670 mmHg 39%
    15:00 +19°C° 0 mm 1 mps 670 mmHg 42%
    16:00 +18°C° 0 mm 1 mps 670 mmHg 45%
    17:00 +16°C° 0 mm 1 mps 670 mmHg 49%
    18:00 +15°C° 0 mm 1 mps 670 mmHg 54%
    19:00 +13°C° 0 mm 1 mps 669 mmHg 59%
    20:00 +13°C° 0 mm 1 mps 669 mmHg 61%
    21:00 +12°C° 0 mm 1 mps 669 mmHg 62%
    22:00 +12°C° 0 mm 1 mps 669 mmHg 64%
    23:00 +11°C° 0 mm 1 mps 669 mmHg 65%
    Mostrar más